[[{"header":{"parameterUnit":"m.s-1","parameterCategory":1,"la1":30.2991,"la2":30.254,"lo1":-89.0895,"lo2":-89.0444,"dy":0.0017,"dx":0.0017,"nx":28,"ny":28,"refTime":"2024-08-17T09:00:00:Z","depth":0,"parameterNumber":2,"parameterNumberName":"U-component_of_WINDS"},"data":[0,0,0,0,0,0,0,0,0,0,0,0,0,0,0,0,0,0,0,0,0,0,0,0,0,0,0,0,0,0,0,0,0,0,0,0,0,0,0,0,0,0,0,0,0,0,0,0,0,0,0,0,0,0,0,0,0,0,2.8505,2.8506,0,2.8655,2.8657,2.8659,2.8645,2.8643,2.864,2.8638,2.8799,2.8806,2.8812,0,0,0,0,0,0,0,0,0,0,0,0,0,2.8214,2.8219,2.8505,2.8506,2.8508,2.8655,2.8657,2.8659,2.8646,2.8643,2.864,2.8637,2.8797,2.8805,2.8813,0,0,0,0,0,0,0,0,0,0,0,0,0,2.835,2.8221,2.8504,2.8519,2.8522,2.8654,2.8657,2.866,2.8646,2.8643,2.8639,2.8636,2.8795,2.8804,2.8814,2.8943,0,0,2.8843,2.8848,0,0,0,0,0,0,0,0,2.8342,2.8361,2.8515,2.8518,2.8522,2.8628,2.8613,2.8755,2.8647,2.8599,2.8638,2.8634,2.8746,2.8759,2.8795,2.8951,2.8958,2.8844,2.885,2.8854,2.8857,0,0,0,0,0,0,0,2.8333,2.8354,2.8564,2.8517,2.8521,2.8521,2.8536,2.864,2.869,2.8603,2.8602,2.862,2.8747,2.8786,2.8799,2.896,2.8844,2.8853,2.8859,2.8862,2.9233,2.9237,0,0,0,0,0,0,2.8319,2.8346,2.856,2.8569,2.8421,2.8529,2.8546,2.8597,2.8689,2.87,2.8623,2.8619,2.8771,2.8788,2.8805,2.8964,2.8854,2.8863,2.8869,2.9229,2.9234,2.9239,0,0,0,0,0,0,2.8313,2.8338,2.8553,2.8457,2.8485,2.8538,2.8595,2.8602,2.8641,2.8704,2.8714,2.8653,2.8769,2.8791,2.8909,2.8969,2.8868,2.8876,2.9224,2.9231,2.9236,2.9282,0,0,0,0,0,0,2.8304,2.8336,2.8383,2.8458,2.849,2.8653,2.8599,2.8608,2.8657,2.8653,2.8735,2.8745,2.8768,2.8895,2.8919,2.8981,2.8884,2.9219,2.9227,2.9234,2.9276,2.9289,2.9301,0,0,0,0,0,2.8294,2.8391,2.8386,2.8411,2.855,2.8656,2.8675,2.8697,2.8662,2.8712,2.8753,2.8743,2.8959,2.8907,2.8934,2.9,2.9216,2.9225,2.9234,2.927,2.9286,2.93,0,0,0,0,0,0,2.8323,2.8401,2.8396,2.852,2.8581,2.8654,2.8717,2.8713,2.8788,2.8781,2.8808,2.8827,2.8946,2.8985,2.8926,2.9131,2.9083,2.9098,2.9101,2.9117,2.913,2.9118,2.8892,0,0,0,0,0,2.8343,2.8421,2.8486,2.8589,2.862,2.8664,2.8711,2.8722,2.8788,2.8815,2.8864,2.8931,2.9014,2.9068,2.9148,2.9282,2.9301,2.9341,2.9353,2.9363,2.9375,2.9452,2.947,2.9268,2.9268,2.9268,0,0,2.8387,2.844,2.8487,2.8597,2.8645,2.8728,2.8685,2.8774,2.8836,2.8829,2.8943,2.8982,2.9058,2.9185,2.9244,2.9221,2.9436,2.9375,2.9382,2.9389,2.9463,2.9482,2.9499,2.9275,2.9273,2.9272,0,0,2.8509,2.8555,2.8647,2.8697,2.8772,2.88,2.8823,2.8897,2.8922,2.9036,2.9034,2.911,2.9251,2.9306,2.9353,2.9498,2.9493,2.9524,2.9589,2.9663,2.9679,2.9693,2.9747,2.9765,2.9537,2.9537,2.9537,0,2.8554,2.8675,2.8695,2.8785,2.8834,2.8831,2.8926,2.8974,2.9072,2.9108,2.9081,2.926,2.9311,2.9452,2.9488,2.9525,2.9553,2.9514,2.9675,2.9689,2.9703,2.9754,2.9774,2.954,2.954,2.9539,2.9539,0,2.8728,2.8813,2.8878,2.8971,2.9028,2.912,2.9157,2.9213,2.9221,2.9254,2.9373,2.9434,2.9527,2.9561,2.9571,2.9705,2.9689,2.9668,2.962,2.9725,2.9774,2.9793,2.9545,2.9544,2.9543,2.9542,0,0,2.887,2.8974,2.8998,2.9041,2.9124,2.9191,2.9285,2.9374,2.9423,2.9491,2.9572,2.9693,2.9675,2.9728,2.9744,2.9809,2.9922,2.9781,2.9783,2.9805,3.0076,3.009,3.0113,2.9919,2.9923,2.9926,3.007,0,2.9,2.9162,2.9185,2.933,2.9409,2.9409,2.9491,2.9553,2.9586,2.9661,2.97,2.9785,2.9755,2.9787,2.9851,2.9894,2.9977,2.9885,2.9997,3.0,2.9977,3.0138,3.0153,3.0285,3.0089,3.0092,3.0094,0,2.9172,2.9244,2.9397,2.9471,2.9506,2.9578,2.9663,2.9734,2.9806,2.9826,2.9886,2.9895,2.9995,2.9943,3.0083,3.0019,3.0067,3.0096,3.0102,3.0113,3.0053,3.0154,3.0328,3.0348,3.0124,3.0122,3.012,0,2.9261,2.9397,2.9506,2.9543,2.9632,2.9684,2.9724,2.9792,2.9845,2.9921,2.9956,3.0043,3.0091,3.0159,3.0192,3.0151,3.033,3.0281,3.0352,3.0351,3.0389,3.0386,3.0573,3.042,3.042,3.0419,3.0419,0,2.9404,2.9497,2.9547,2.9614,2.972,2.9747,2.9852,2.9891,2.9952,3.0029,3.0035,3.0108,3.0147,3.0226,3.0253,3.0366,3.0387,3.0408,3.0414,3.0408,3.0405,3.0439,3.043,3.0424,3.0423,3.0422,3.0421,0,2.952,2.9557,2.9676,2.9752,2.9773,2.9848,2.9914,2.9981,3.0015,3.0112,3.0137,3.0191,3.0285,3.0325,3.0441,3.0459,3.0588,3.0588,3.0563,3.0565,3.0634,3.0627,3.085,3.0881,3.0707,3.0708,3.071,0,2.9608,2.968,2.9764,2.9815,2.9856,2.9938,2.9993,3.0024,3.008,3.0169,3.0226,3.0319,3.0395,3.0546,3.0598,3.0687,3.0689,3.0761,3.0702,3.0694,3.0691,3.0686,3.0694,3.0771,3.0773,3.0774,3.0776,0,2.9761,2.9777,2.9853,2.9938,3.0002,3.007,3.0137,3.0179,3.0221,3.0285,3.038,3.0439,3.0558,3.0652,3.0745,3.0789,3.0791,3.0794,3.0815,3.0808,3.0791,3.0802,3.0592,3.0788,3.0787,3.0786,3.0785,3.0785,2.9867,2.9931,3.0,3.0087,3.014,3.0203,3.027,3.0312,3.0392,3.0489,3.0504,3.0606,3.0679,3.0804,3.0852,3.0934,3.0917,3.0947,3.0955,3.0962,3.0966,3.0779,3.0952,3.0951,3.0951,3.0951,3.0951,0,3.002,3.0065,3.0144,3.0237,3.0306,3.03,3.0375,3.0433,3.0522,3.0589,3.0664,3.0775,3.0867,3.0926,3.102,3.1074,3.1078,3.1098,3.1094,3.1105,3.0977,3.0949,3.1094,3.1094,3.1094,3.1094,3.1094,3.1094,3.0108,3.0217,3.0242,3.0379,3.0424,3.0523,3.0566,3.0625,3.0679,3.0802,3.0877,3.0915,3.098,3.1078,3.1163,3.1179,3.1213,3.1234,3.1249,3.1128,3.1113,3.1099,3.1073,3.1242,3.1242,3.137,3.1371,3.1372]},{"header":{"parameterUnit":"m.s-1","parameterCategory":1,"la1":30.2991,"la2":30.254,"lo1":-89.0895,"lo2":-89.0444,"dy":0.0017,"dx":0.0017,"nx":28,"ny":28,"refTime":"2024-08-17T09:00:00:Z","depth":0,"parameterNumber":3,"parameterNumberName":"V-component_of_WINDS"},"data":[0,0,0,0,0,0,0,0,0,0,0,0,0,0,0,0,0,0,0,0,0,0,0,0,0,0,0,0,0,0,0,0,0,0,0,0,0,0,0,0,0,0,0,0,0,0,0,0,0,0,0,0,0,0,0,0,0,0,3.7301,3.7303,0,3.7542,3.7544,3.7547,3.7593,3.7592,3.759,3.7588,3.7831,3.7839,3.7847,0,0,0,0,0,0,0,0,0,0,0,0,0,3.6873,3.6881,3.73,3.7304,3.7307,3.7541,3.7545,3.7548,3.7594,3.7591,3.7589,3.7587,3.7828,3.7838,3.7848,0,0,0,0,0,0,0,0,0,0,0,0,0,3.7081,3.6884,3.73,3.7358,3.7365,3.7541,3.7545,3.7549,3.7594,3.7591,3.7589,3.7586,3.7825,3.7837,3.7849,3.7983,0,0,3.7887,3.7892,0,0,0,0,0,0,0,0,3.7069,3.7097,3.7346,3.7354,3.7363,3.7535,3.7483,3.7694,3.7595,3.7507,3.7588,3.7584,3.7734,3.7754,3.7805,3.7994,3.8004,3.7888,3.7896,3.7901,3.7904,0,0,0,0,0,0,0,3.7055,3.7086,3.7396,3.735,3.736,3.737,3.7396,3.7523,3.7634,3.7515,3.7519,3.7547,3.7738,3.7793,3.7811,3.8008,3.7888,3.7899,3.7906,3.7911,3.8313,3.8316,0,0,0,0,0,0,3.7031,3.7074,3.7388,3.7403,3.7206,3.738,3.7409,3.7482,3.7633,3.7653,3.7549,3.7548,3.7774,3.7797,3.782,3.7983,3.7901,3.7912,3.7919,3.8309,3.8313,3.8317,0,0,0,0,0,0,3.7021,3.7058,3.7378,3.724,3.7281,3.739,3.7472,3.7489,3.7544,3.7658,3.7678,3.7585,3.7772,3.7803,3.7941,3.7992,3.7918,3.7929,3.8305,3.8311,3.8315,3.8312,0,0,0,0,0,0,3.7009,3.7055,3.7109,3.7241,3.7289,3.7498,3.7475,3.7495,3.7565,3.7567,3.7698,3.7717,3.7772,3.7922,3.7953,3.8008,3.7939,3.8301,3.8308,3.8313,3.8308,3.8316,3.8323,0,0,0,0,0,3.6994,3.7098,3.7111,3.7149,3.7358,3.7501,3.7528,3.7591,3.757,3.7623,3.7696,3.7712,3.7982,3.7936,3.7971,3.8031,3.8298,3.8306,3.8313,3.8305,3.8315,3.8323,0,0,0,0,0,0,3.697,3.7117,3.7133,3.7284,3.7379,3.7508,3.7578,3.76,3.7703,3.7699,3.7772,3.7801,3.7934,3.7996,3.7943,3.8165,3.8138,3.8153,3.812,3.813,3.8138,3.812,3.7949,0,0,0,0,0,3.6982,3.7087,3.7209,3.733,3.7377,3.7469,3.7533,3.7573,3.7675,3.7715,3.7798,3.7895,3.8,3.8069,3.8173,3.8317,3.8344,3.8374,3.8382,3.8388,3.8399,3.8476,3.849,3.8341,3.8341,3.8341,0,0,3.7008,3.7102,3.7164,3.7328,3.7406,3.7511,3.7503,3.7615,3.7692,3.7732,3.7867,3.7931,3.8043,3.8183,3.8249,3.8239,3.8446,3.8397,3.8401,3.841,3.8485,3.8499,3.8511,3.8346,3.8345,3.8344,0,0,3.7109,3.7192,3.73,3.7379,3.7498,3.7557,3.7583,3.7708,3.7752,3.7889,3.7919,3.8011,3.8193,3.827,3.8333,3.8458,3.8476,3.849,3.8529,3.8603,3.8615,3.8625,3.8667,3.8681,3.8501,3.8501,3.8501,0,3.7127,3.7288,3.7353,3.7463,3.7532,3.7573,3.7681,3.7753,3.7899,3.7945,3.7932,3.8158,3.8237,3.8394,3.8423,3.8474,3.8503,3.8476,3.8608,3.8619,3.863,3.8671,3.8687,3.8502,3.8502,3.8502,3.8502,0,3.7301,3.7412,3.7485,3.7625,3.7702,3.7811,3.789,3.796,3.7992,3.8052,3.8188,3.8283,3.8405,3.8445,3.8478,3.8605,3.8595,3.8594,3.8568,3.8644,3.8683,3.8699,3.8503,3.8503,3.8502,3.8502,0,0,3.7397,3.7569,3.7595,3.7657,3.7789,3.7874,3.7982,3.8102,3.8159,3.8257,3.8348,3.8498,3.8497,3.8568,3.8609,3.8674,3.8762,3.8665,3.8668,3.8678,3.8905,3.8904,3.8921,3.8775,3.8778,3.8781,3.8895,0,3.7513,3.7709,3.7769,3.7932,3.8032,3.807,3.8163,3.8252,3.831,3.8401,3.8464,3.8569,3.8561,3.8603,3.8669,3.8738,3.8809,3.8731,3.8857,3.8861,3.8827,3.8942,3.8943,3.9046,3.8911,3.8913,3.8915,0,3.7675,3.7775,3.7948,3.8064,3.8108,3.8191,3.8303,3.8392,3.8492,3.8529,3.8606,3.8641,3.8751,3.8719,3.887,3.8815,3.887,3.8911,3.8916,3.893,3.8892,3.8957,3.9081,3.9096,3.8941,3.8939,3.8937,0,3.7724,3.7902,3.8028,3.808,3.8219,3.8276,3.8336,3.8433,3.85,3.8597,3.864,3.8748,3.8807,3.8889,3.895,3.8922,3.9095,3.9069,3.9126,3.9124,3.9161,3.9158,3.9294,3.9198,3.9198,3.9197,3.9197,0,3.7846,3.795,3.8051,3.8129,3.8244,3.831,3.8422,3.8484,3.8569,3.8657,3.8695,3.8776,3.8853,3.8942,3.8991,3.9106,3.9133,3.9164,3.9175,3.916,3.9156,3.9197,3.9191,3.9202,3.9201,3.92,3.9199,0,3.7921,3.7994,3.8133,3.8251,3.8283,3.8363,3.8463,3.8538,3.8595,3.8705,3.8734,3.8824,3.8932,3.9001,3.9138,3.9169,3.9295,3.9305,3.9262,3.9267,3.932,3.9313,3.9486,3.951,3.9399,3.94,3.9401,0,3.7994,3.8075,3.8201,3.8263,3.8323,3.8422,3.849,3.8556,3.8624,3.8742,3.8801,3.8911,3.9002,3.9171,3.9247,3.935,3.9362,3.9415,3.9378,3.9359,3.936,3.9354,3.9361,3.9421,3.9422,3.9423,3.9424,0,3.8115,3.8145,3.8243,3.8351,3.843,3.8519,3.8607,3.8655,3.8735,3.8809,3.892,3.8991,3.9129,3.9236,3.9346,3.9404,3.9426,3.9434,3.9453,3.9438,3.9408,3.9423,3.9277,3.943,3.943,3.9429,3.9429,3.9429,3.819,3.8262,3.8361,3.8466,3.8539,3.862,3.8694,3.876,3.8854,3.8973,3.9005,3.9119,3.9213,3.9362,3.9422,3.951,3.9504,3.9531,3.9538,3.9543,3.9542,3.9394,3.9531,3.9531,3.9531,3.953,3.953,0,3.8311,3.8375,3.8472,3.8593,3.8675,3.8689,3.8786,3.8853,3.8953,3.9039,3.9128,3.9252,3.9355,3.9437,3.9542,3.9597,3.9609,3.9622,3.9618,3.963,3.9544,3.9516,3.961,3.961,3.961,3.961,3.961,3.961,3.8383,3.8504,3.8546,3.8702,3.8766,3.8879,3.8932,3.9005,3.9074,3.9211,3.9297,3.935,3.9434,3.9544,3.9638,3.9659,3.9695,3.9706,3.9728,3.9646,3.9637,3.9629,3.9603,3.9713,3.9713,3.9808,3.9809,3.9809]}]]